Location: ????????
(60.4333°N, 46.4710°E)
Time: 03:11:31
(UTC+00:00)

Cosmos 1743 Rocket - Pass Details

Date: 25 November 2020
Orbit: 603 x 634 km, 82.6° (Epoch: 19 January)

Event Time Altitude Azimuth Distance (km) Brightness Sun altitude
Rises 13:47:55 0° 344° (NNW) 2,948 7.0 -11.8°
Reaches altitude 10° 13:50:11 10° 343° (NNW) 2,035 6.2 -12.0°
Maximum altitude 13:54:40 69° 261° (W) 685 4.0 -12.5°
Drops below altitude 10° 13:59:06 10° 178° (S) 2,011 6.4 -13.1°
Sets 14:01:19 0° 176° (S) 2,911 7.2 -13.3°
